Grand Forks Air Force Base, ND

9:28 AM CDT on August 25, 2016 (GMT -0500)
Grand Forks International

Weather History for KGFK - July, 2013

Change the Weather History Date:

Thursday, July 11, 2013

  Actual Average Record
Temperature  
Mean Temperature 71 °F 68 °F  
Max Temperature 88 °F 81 °F 97 °F (1954)
Min Temperature 54 °F 56 °F 42 °F (1959)
Degree Days  
Heating Degree Days 0 1  
Month to date heating degree days 0 12  
Since 1 June heating degree days 77 115  
Since 1 July heating degree days 0 12  
Cooling Degree Days 6 5  
Month to date cooling degree days 84 45  
Year to date cooling degree days 206 137  
Since 1 June cooling degree days 197 120  
Growing Degree Days 22 (Base 50)    
Moisture  
Dew Point 60 °F    
Average Humidity 68    
Maximum Humidity 93    
Minimum Humidity 43    
Precipitation  
Precipitation 0.00 in 0.10 in 1.66 in (1943)
Month to date precipitation 0.25 1.27  
Year to date precipitation 11.52 10.47  
Snow  
Snow 0.00 in 0.00 in - ()
Month to date snowfall 0.0 0.0  
Since 1 June snowfall 0.0 0.0  
Since 1 July snowfall 0.0 0.0  
Snow Depth 0.00 in    
Sea Level Pressure  
Sea Level Pressure 29.86 in    
Wind  
Wind Speed 13 mph (South)    
Max Wind Speed 24 mph    
Max Gust Speed 31 mph    
Visibility 10 miles    
Events      
T = Trace of Precipitation, MM = Missing Value Source: NWS Daily Summary

Daily Weather History Graph

Daily Weather History Graph

Search for Another Location

Airport or City:

Trip Planner

Search our weather history database for the weather conditions in past years. The results will help you decide how hot, cold, wet, or windy it might be!

Date:

Astronomy

Jul. 11, 2013 Rise Set
Actual Time 5:41 AM CDT 9:26 PM CDT
Civil Twilight 5:01 AM CDT 10:06 PM CDT
Nautical Twilight 4:07 AM CDT 10:59 PM CDT
Astronomical Twilight 2:49 AM CDT 12:17 AM CDT
Moon 9:20 AM CDT (7/11) 10:46 PM CDT (7/11)
Length of Visible Light 17h 04m
Length of Day
15h 45m
Waxing Crescent, 11% of the Moon is Illuminated
Jul 11
Waxing Crescent
Jul 15
First Quarter
Jul 22
Full
Jul 29
Last Quarter
Aug 6
New

Hourly Weather History & Observations

Time (CDT) Temp. Heat Index Dew Point Humidity Pressure Visibility Wind Dir Wind Speed Gust Speed Precip Events Conditions
12:53 AM 60.1 °F - 55.9 °F 86% 29.97 in 10.0 mi South 4.6 mph - N/A   Clear
1:53 AM 60.1 °F - 55.0 °F 83% 29.97 in 10.0 mi South 5.8 mph - N/A   Clear
2:53 AM 60.1 °F - 55.0 °F 83% 29.96 in 10.0 mi SSW 6.9 mph - N/A   Clear
3:53 AM 57.0 °F - 54.0 °F 89% 29.97 in 10.0 mi South 5.8 mph - N/A   Clear
4:53 AM 55.9 °F - 53.1 °F 90% 29.96 in 10.0 mi South 4.6 mph - N/A   Clear
5:53 AM 55.9 °F - 52.0 °F 87% 29.97 in 8.0 mi SSE 5.8 mph - N/A   Clear
6:53 AM 57.9 °F - 54.0 °F 87% 29.97 in 8.0 mi SSE 6.9 mph - N/A   Clear
7:53 AM 64.0 °F - 57.0 °F 78% 29.96 in 8.0 mi South 6.9 mph - N/A   Clear
8:53 AM 70.0 °F - 59.0 °F 68% 29.96 in 8.0 mi South 11.5 mph - N/A   Clear
9:53 AM 73.9 °F - 57.9 °F 57% 29.93 in 9.0 mi South 16.1 mph 24.2 mph N/A   Clear
10:53 AM 79.0 °F - 59.0 °F 50% 29.91 in 10.0 mi South 19.6 mph 24.2 mph N/A   Clear
11:53 AM 81.0 °F 81.0 °F 57.0 °F 44% 29.89 in 10.0 mi South 16.1 mph - N/A   Partly Cloudy
12:53 PM 84.0 °F 83.8 °F 59.0 °F 43% 29.87 in 10.0 mi SSE 18.4 mph 23.0 mph N/A   Mostly Cloudy
1:53 PM 84.0 °F 84.4 °F 61.0 °F 46% 29.85 in 10.0 mi South 16.1 mph 24.2 mph N/A   Scattered Clouds
2:53 PM 84.9 °F 85.4 °F 62.1 °F 46% 29.82 in 10.0 mi South 15.0 mph 25.3 mph N/A   Scattered Clouds
3:53 PM 87.1 °F 87.8 °F 63.0 °F 44% 29.80 in 10.0 mi SSE 21.9 mph 28.8 mph N/A   Partly Cloudy
4:53 PM 88.0 °F 89.3 °F 64.0 °F 45% 29.78 in 10.0 mi South 21.9 mph 28.8 mph N/A   Partly Cloudy
5:53 PM 87.1 °F 88.9 °F 64.9 °F 48% 29.77 in 10.0 mi South 17.3 mph 29.9 mph N/A   Partly Cloudy
6:53 PM 86.0 °F 87.6 °F 64.9 °F 49% 29.76 in 10.0 mi South 16.1 mph 26.5 mph N/A   Partly Cloudy
7:53 PM 84.0 °F 86.3 °F 66.0 °F 55% 29.73 in 10.0 mi SSE 15.0 mph 23.0 mph N/A   Clear
8:53 PM 80.1 °F 82.3 °F 66.9 °F 64% 29.72 in 10.0 mi SSE 13.8 mph - N/A   Partly Cloudy
9:53 PM 77.0 °F - 66.0 °F 69% 29.73 in 10.0 mi SSE 13.8 mph - N/A   Clear
10:53 PM 75.9 °F - 64.9 °F 69% 29.71 in 10.0 mi SSE 15.0 mph - N/A   Clear
11:53 PM 75.9 °F - 64.9 °F 69% 29.73 in 10.0 mi SSE 10.4 mph - N/A   Clear